Le nostre stazioni meteo in Italia

Pubblicità
Il mio iltempo24.it
Fyvie castle, Gran Bretagna (99010): Temperatura & dewpoint: 10.02.2019 06:00:00 - 16.02.2019 06:00:00 (GMT)Fyvie castle, Gran Bretagna (99010): precipitazioni: 10.02.2019 06:00:00 - 16.02.2019 06:00:00 (GMT)
Data & Tempo tt [°C] td [°C] rr [mm]
16.02.2019 06:00:00 4,0 2,4 -
16.02.2019 05:00:00 6,4 3,7 0,0
16.02.2019 04:00:00 6,0 4,6 0,0
16.02.2019 03:00:00 5,9 4,7 0,0
16.02.2019 02:00:00 7,7 5,9 0,0
16.02.2019 01:00:00 9,9 6,4 0,0
16.02.2019 00:00:00 8,2 6,2 0,2
15.02.2019 23:00:00 8,3 5,1 0,0
15.02.2019 22:00:00 8,5 4,6 0,0
15.02.2019 21:00:00 9,8 4,7 0,0
15.02.2019 20:00:00 10,8 5,0 0,0
15.02.2019 19:00:00 11,0 4,6 0,0
15.02.2019 18:00:00 11,2 4,3 0,0
15.02.2019 17:00:00 12,1 3,6 0,0
15.02.2019 16:00:00 13,0 2,8 0,0
15.02.2019 15:00:00 14,0 2,2 0,0
15.02.2019 14:00:00 14,7 2,2 0,0
15.02.2019 13:00:00 14,1 1,9 0,0
15.02.2019 12:00:00 12,7 -3,6 0,0
15.02.2019 11:00:00 9,9 -3,7 0,0
15.02.2019 10:00:00 9,7 -8,2 0,0
15.02.2019 09:00:00 4,9 -4,4 0,0
15.02.2019 08:00:00 3,7 -3,6 0,0
15.02.2019 07:00:00 -0,2 -2,0 0,0
15.02.2019 06:00:00 1,1 -0,6 0,0
15.02.2019 05:00:00 2,6 -0,4 0,0
15.02.2019 04:00:00 4,2 0,0 0,0
15.02.2019 03:00:00 4,7 1,2 0,0
15.02.2019 02:00:00 5,4 1,7 0,0
15.02.2019 01:00:00 3,3 2,7 0,0
15.02.2019 00:00:00 3,2 2,5 0,0
14.02.2019 23:00:00 4,1 3,0 0,0
14.02.2019 22:00:00 6,1 4,0 0,0
14.02.2019 21:00:00 6,6 4,8 0,0
14.02.2019 20:00:00 6,2 5,0 0,0
14.02.2019 19:00:00 6,7 5,4 0,0
14.02.2019 18:00:00 7,8 6,1 0,0
14.02.2019 17:00:00 8,8 6,4 0,0
14.02.2019 16:00:00 9,2 6,7 0,0
14.02.2019 15:00:00 9,4 6,8 0,0
14.02.2019 14:00:00 9,4 7,0 0,0
14.02.2019 13:00:00 9,2 6,7 0,0
14.02.2019 12:00:00 8,9 6,6 0,0
14.02.2019 11:00:00 8,1 6,2 0,0
14.02.2019 10:00:00 7,4 5,6 0,0
14.02.2019 09:00:00 7,2 5,4 0,0
14.02.2019 08:00:00 7,2 4,8 0,0
14.02.2019 07:00:00 7,8 5,6 0,0
14.02.2019 06:00:00 8,6 4,6 0,0
14.02.2019 05:00:00 10,2 5,5 0,0
14.02.2019 04:00:00 8,9 5,1 0,0
14.02.2019 03:00:00 7,7 5,2 0,0
14.02.2019 02:00:00 7,6 5,0 0,0
14.02.2019 01:00:00 7,5 4,2 0,0
14.02.2019 00:00:00 7,5 4,6 0,0
13.02.2019 23:00:00 4,9 3,4 0,0
13.02.2019 22:00:00 5,6 3,8 0,0
13.02.2019 21:00:00 6,4 3,9 0,0
13.02.2019 20:00:00 8,1 4,5 0,0
13.02.2019 19:00:00 8,8 4,9 0,0
13.02.2019 18:00:00 8,8 5,1 0,0
13.02.2019 17:00:00 10,2 5,9 0,0
13.02.2019 16:00:00 11,1 6,2 0,0
13.02.2019 15:00:00 12,8 6,5 0,0
13.02.2019 14:00:00 12,0 6,8 0,0
13.02.2019 13:00:00 10,9 6,4 0,0
13.02.2019 12:00:00 10,5 6,8 0,0
13.02.2019 11:00:00 10,2 6,4 0,0
13.02.2019 10:00:00 9,4 6,2 0,0
13.02.2019 09:00:00 6,1 5,5 0,0
13.02.2019 08:00:00 4,7 4,0 0,0
13.02.2019 07:00:00 4,7 3,4 0,0
13.02.2019 06:00:00 3,9 2,9 0,2
13.02.2019 05:00:00 3,3 1,7 0,0
13.02.2019 04:00:00 2,7 1,0 0,0
13.02.2019 03:00:00 3,7 1,3 0,0
13.02.2019 02:00:00 4,4 2,3 0,0
13.02.2019 01:00:00 4,6 1,6 0,0
13.02.2019 00:00:00 5,9 2,6 0,0
12.02.2019 23:00:00 6,2 2,3 0,0
12.02.2019 22:00:00 7,1 3,0 0,0
12.02.2019 21:00:00 8,7 3,2 0,0
12.02.2019 20:00:00 8,8 2,9 0,0
12.02.2019 19:00:00 9,2 2,6 0,0
12.02.2019 18:00:00 9,2 3,7 0,0
12.02.2019 17:00:00 10,8 4,6 0,0
12.02.2019 16:00:00 12,3 5,4 0,0
12.02.2019 15:00:00 12,9 7,1 0,0
12.02.2019 14:00:00 11,4 7,0 0,0
12.02.2019 13:00:00 10,3 5,9 0,0
12.02.2019 12:00:00 8,2 5,4 0,0
12.02.2019 11:00:00 8,1 6,0 0,0
12.02.2019 10:00:00 6,7 4,8 0,0
12.02.2019 09:00:00 6,0 4,7 0,0
12.02.2019 08:00:00 5,9 4,7 0,0
12.02.2019 07:00:00 2,9 2,8 0,2
12.02.2019 06:00:00 1,7 1,4 0,4
12.02.2019 05:00:00 0,9 0,4 0,0
12.02.2019 04:00:00 1,0 0,3 0,0
12.02.2019 03:00:00 1,8 0,9 0,0
12.02.2019 02:00:00 2,1 0,5 0,0
12.02.2019 01:00:00 2,4 0,9 0,0
12.02.2019 00:00:00 2,5 0,8 0,0
11.02.2019 23:00:00 2,7 0,4 0,0
11.02.2019 22:00:00 2,3 0,3 0,0
11.02.2019 21:00:00 0,2 -0,5 0,0
11.02.2019 20:00:00 -0,1 -0,9 0,0
11.02.2019 19:00:00 0,1 -1,0 0,0
11.02.2019 18:00:00 1,1 -0,5 0,0
11.02.2019 17:00:00 2,4 0,3 0,0
11.02.2019 16:00:00 4,2 0,2 0,0
11.02.2019 15:00:00 5,6 -0,4 0,0
11.02.2019 14:00:00 5,7 -0,4 0,0
11.02.2019 13:00:00 5,9 0,6 0,0
11.02.2019 12:00:00 4,6 0,8 0,0
11.02.2019 11:00:00 3,2 0,9 0,0
11.02.2019 10:00:00 1,9 0,8 0,2
11.02.2019 09:00:00 1,5 0,6 0,0
11.02.2019 08:00:00 1,3 0,7 0,0
11.02.2019 07:00:00 1,0 0,5 0,0
11.02.2019 06:00:00 0,9 0,4 0,0
11.02.2019 05:00:00 0,8 0,3 0,0
11.02.2019 04:00:00 0,6 0,4 0,0
11.02.2019 03:00:00 0,5 0,1 0,0
11.02.2019 02:00:00 1,5 0,8 0,4
11.02.2019 01:00:00 2,7 1,9 0,4
11.02.2019 00:00:00 2,8 2,1 1,0
10.02.2019 23:00:00 3,3 2,2 1,2
10.02.2019 22:00:00 4,4 3,9 0,4
10.02.2019 21:00:00 3,9 3,3 0,2
10.02.2019 20:00:00 3,3 2,4 0,2
10.02.2019 19:00:00 3,2 2,0 0,0
10.02.2019 18:00:00 4,4 1,2 0,0
10.02.2019 17:00:00 4,4 -0,6 0,0
10.02.2019 16:00:00 5,3 -0,7 0,0
10.02.2019 15:00:00 6,3 -2,0 0,0
10.02.2019 14:00:00 7,0 -1,8 0,0
10.02.2019 13:00:00 6,3 -0,6 0,0
10.02.2019 12:00:00 5,7 -0,9 0,2
10.02.2019 11:00:00 3,9 0,1 0,0
10.02.2019 10:00:00 -0,5 -0,7 0,0
10.02.2019 09:00:00 -2,7 -2,9 0,0
10.02.2019 08:00:00 -2,9 -3,3 0,0
10.02.2019 07:00:00 -2,9 -3,5 0,0
10.02.2019 06:00:00 -2,5 -3,4 0,0

tt = Temperatura
td = dewpoint
rr = precipitazioni

Stazioni seguenti

WeatherPro
AMSI
MeteoEarth